Location: Unspecified
(0.0000°N, 0.0000°E)
Time: 04:20:59
(UTC-01:00)

Amateur Radio Satellites - All Passes

Search period start: 20 January 2018 03:50
Search period end: 21 January 2018 03:50
Location: Unspecified, 0.0000°N, 0.0000°E

Satellite Date Start Highest point End Downlink Frequencies (MHz)
Time Altitude Azimuth
DOVE 4 20 Jan 03:53:02 03:57:27 43° 281° (W) 04:02:09 437.250
LilacSat-2 20 Jan 04:00:48 04:03:26 18° 101° (ESE) 04:06:05 437.200
SRMSAT 20 Jan 04:01:14 04:03:37 12° 171° (S) 04:06:01 437.500
XW-2C 20 Jan 04:04:36 04:07:16 19° 101° (ESE) 04:09:56 145.795 - 145.815
HO-68 20 Jan 04:16:35 04:19:33 13° 106° (ESE) 04:22:32 435.675
XW-2F 20 Jan 04:41:07 04:44:48 71° 102° (ESE) 04:48:29 145.980 - 146.000
KAITUO 1B 20 Jan 04:41:41 04:45:12 47° 101° (E) 04:48:45 145.475/437.950
CUTE-I 20 Jan 04:42:40 04:47:52 55° 103° (ESE) 04:53:06 437.470
XW-2D 20 Jan 04:49:43 04:53:25 68° 280° (W) 04:57:08 145.860 - 145.880
NUDT-PHONESAT 20 Jan 04:54:50 04:58:27 75° 102° (ESE) 05:02:05 437.300
KKS-1 20 Jan 05:07:08 05:09:18 13° 257° (WSW) 05:11:27 437.445
XW-2B 20 Jan 05:07:32 05:10:57 36° 281° (W) 05:14:24 145.730 - 145.750
FO-29 20 Jan 05:23:12 05:25:39 12° 79° (ENE) 05:28:02 435.910
nSIGHT-1 20 Jan 05:24:59 05:27:59 39° 235° (SW) 05:31:01 .
STARS 20 Jan 05:25:09 05:28:38 23° 257° (WSW) 05:32:06 437.465
JUGNU 20 Jan 05:30:58 05:36:52 77° 339° (NNW) 05:42:44 437.505
ISS 20 Jan 05:33:13 05:36:26 59° 234° (SW) 05:39:40 437.550
SEEDS 20 Jan 05:34:09 05:38:04 41° 102° (ESE) 05:41:59 437.485
LilacSat-2 20 Jan 05:35:52 05:37:26 12° 281° (WNW) 05:38:59 437.200
XW-2C 20 Jan 05:39:47 05:41:10 12° 281° (WNW) 05:42:33 145.795 - 145.815
RS-15 20 Jan 05:42:31 05:54:31 73° 110° (ESE) 06:06:46 29.354- 29.394
CUBEBUG 2 20 Jan 05:44:02 05:48:42 66° 101° (ESE) 05:53:17 437.445
CUTE 1.7 + AOD 2 20 Jan 05:44:09 05:48:17 66° 282° (WNW) 05:52:27 437.475
SRMSAT 20 Jan 05:48:43 05:53:31 25° 163° (SSE) 05:58:17 437.500
UWE-3 20 Jan 05:52:13 05:56:28 38° 101° (E) 06:00:37 435.000/436.395/437.385
STRAND 1 20 Jan 05:55:10 06:00:11 58° 78° (ENE) 06:05:10 437.568
HO-68 20 Jan 05:59:51 06:06:53 63° 284° (WNW) 06:13:58 435.675
ZACube-1 20 Jan 06:18:34 06:22:40 37° 101° (ESE) 06:26:41 437.345
AO-73 20 Jan 06:26:02 06:30:08 40° 101° (E) 06:34:11 145.935
BEESAT 3 20 Jan 06:44:13 06:47:33 26° 112° (ESE) 06:50:53 437.485
AAUSAT CUBESAT 2 20 Jan 06:54:48 06:58:32 35° 281° (W) 07:02:19 437.432
Oscar 11 20 Jan 07:00:10 07:04:26 69° 102° (ESE) 07:08:42 .
FO-29 20 Jan 07:02:48 07:10:32 72° 257° (WSW) 07:17:35 435.910
PCSat 20 Jan 07:06:17 07:11:14 37° 109° (ESE) 07:16:10 145.827
XW-2A 20 Jan 07:07:01 07:09:33 20° 281° (W) 07:12:05 145.665 - 145.685
JUGNU 20 Jan 07:21:01 07:26:00 28° 342° (NNW) 07:30:58 437.505
BEESAT 2 20 Jan 07:29:55 07:32:49 20° 112° (ESE) 07:35:43 435.950
SRMSAT 20 Jan 07:37:00 07:42:53 64° 158° (SSE) 07:48:45 437.500
DELFI C3 20 Jan 07:41:55 07:45:18 28° 102° (ESE) 07:48:42 145.870
RS-15 20 Jan 07:58:57 08:06:47 20° 293° (WNW) 08:14:45 29.354- 29.394
YUBILEINY 20 Jan 08:18:05 08:21:59 14° 87° (E) 08:25:53 435.215
TIGRISAT 20 Jan 08:30:36 08:34:54 84° 261° (W) 08:39:13 435.000
Max Valier Satellite 20 Jan 08:33:48 08:37:26 68° 281° (W) 08:41:04 145.860
UNISAT 6 20 Jan 08:45:49 08:49:53 43° 258° (WSW) 08:54:00 437.425
PCSat 20 Jan 08:51:34 08:54:21 14° 290° (WNW) 08:57:09 145.827
EO-88 20 Jan 08:55:06 08:58:36 52° 282° (WNW) 09:02:08 145.990 - 145.960
ESTCUBE 1 20 Jan 09:08:08 09:09:00 10° 102° (ESE) 09:09:52 437.505/2401.250
BEESAT 2 20 Jan 09:08:10 09:10:15 14° 292° (WNW) 09:12:21 435.950
JUGNU 20 Jan 09:12:51 09:15:35 13° 349° (N) 09:18:19 437.505
PRISM 20 Jan 09:16:01 09:20:06 68° 78° (ENE) 09:24:08 437.425
SRMSAT 20 Jan 09:26:25 09:32:05 46° 340° (NNW) 09:37:46 437.500
O/OREOS (USA 219) 20 Jan 09:29:36 09:30:47 11° 76° (ENE) 09:31:57 437.305
QB50P2 20 Jan 09:50:44 09:53:35 18° 78° (ENE) 09:56:25 145.880/145.840
AO-85 20 Jan 10:02:14 10:05:44 34° 292° (WNW) 10:09:14 145.980
YUBILEINY 20 Jan 10:09:50 10:18:22 66° 267° (W) 10:26:59 435.215
LO-87 20 Jan 10:17:36 10:20:58 37° 281° (W) 10:24:20 145.935 - 145.965
AIST 2D 20 Jan 10:18:14 10:21:21 29° 259° (W) 10:24:27 435.315
EO-79 20 Jan 10:20:50 10:24:49 43° 78° (ENE) 10:28:47 145.935-145.965
DUCHIFAT 1 20 Jan 10:21:10 10:24:47 29° 78° (ENE) 10:28:25 145.980
ESTCUBE 1 20 Jan 10:41:32 10:45:30 32° 282° (WNW) 10:49:31 437.505/2401.250
VELOX 1 20 Jan 10:45:59 10:49:03 19° 102° (ESE) 10:52:09 145.980
SPROUT 20 Jan 10:49:05 10:53:12 46° 102° (ESE) 10:57:18 437.525
POLYITAN 1 20 Jan 10:55:24 10:59:30 55° 258° (WSW) 11:03:37 437.675
O/OREOS (USA 219) 20 Jan 11:05:57 11:09:53 30° 256° (WSW) 11:13:52 437.305
NANOSAT C BR1 20 Jan 11:12:09 11:16:00 36° 258° (WSW) 11:19:51 145.865
SRMSAT 20 Jan 11:17:26 11:21:37 19° 345° (NNW) 11:25:48 437.500
FALCONSAT 3 20 Jan 11:22:11 11:25:50 90° 95° (E) 11:29:30 435.103
BUGSAT 1 20 Jan 11:26:03 11:29:43 35° 78° (ENE) 11:33:24 437.445
QB50P2 20 Jan 11:26:18 11:29:05 17° 258° (WSW) 11:31:52 145.880/145.840
Oscar 19 20 Jan 11:31:33 11:35:47 25° 77° (ENE) 11:39:59 437.125/150
50 SAT 20 Jan 12:10:17 12:12:53 25° 102° (ESE) 12:15:29 437.505
AO-91 20 Jan 12:16:43 12:20:20 63° 258° (WSW) 12:23:43 145.960
VELOX 1 20 Jan 12:22:08 12:25:13 19° 282° (WNW) 12:28:18 145.980
UKube-1 20 Jan 12:30:05 12:33:58 33° 103° (ESE) 12:37:51 .
DX 1 20 Jan 12:39:38 12:43:59 86° 284° (WNW) 12:48:22 434.975-435.025
Gurwin Techsat 1B 20 Jan 12:49:06 12:54:16 52° 257° (WSW) 12:59:25 435.225
NO-84 20 Jan 12:49:35 12:51:38 14° 125° (SE) 12:53:37 435.350 FM
JUGNU 20 Jan 12:53:21 12:55:49 13° 10° (N) 12:58:19 437.505
SRMSAT 20 Jan 13:10:14 13:11:41 11° 354° (N) 13:13:08 437.500
Oscar 19 20 Jan 13:11:07 13:14:48 20° 257° (WSW) 13:18:29 437.125/150
AO-7 20 Jan 13:26:03 13:33:37 39° 74° (ENE) 13:41:09 .
ITUPSAT 1 20 Jan 13:29:28 13:33:04 21° 103° (ESE) 13:36:40 437.325
SO-50 20 Jan 13:50:36 13:52:00 11° 67° (ENE) 13:53:25 436.795
MOZHAYETS 4 20 Jan 14:06:51 14:11:18 53° 282° (WNW) 14:15:46
BEESAT 20 Jan 14:08:27 14:13:13 74° 102° (ESE) 14:17:59 436.000
CUBESAT XI-V 20 Jan 14:08:34 14:12:16 24° 102° (ESE) 14:15:59 437.345
ITAMSAT 1 20 Jan 14:14:20 14:19:24 54° 77° (ENE) 14:24:25 435.822/435.867
NO-84 20 Jan 14:25:57 14:28:42 20° 300° (WNW) 14:31:15 435.350 FM
DOVE 4 20 Jan 14:38:16 14:41:19 17° 80° (E) 14:44:14 437.250
JUGNU 20 Jan 14:40:38 14:45:29 26° 18° (NNE) 14:50:23 437.505
SRMSAT 20 Jan 15:00:57 15:02:05 10° 5° (N) 15:03:13 437.500
ITUPSAT 1 20 Jan 15:07:09 15:10:36 20° 283° (WNW) 15:14:04 437.325
M-CUBED/EXP-1 PRIME 20 Jan 15:07:35 15:12:03 49° 75° (ENE) 15:16:23 437.505
AO-7 20 Jan 15:19:13 15:25:59 28° 253° (WSW) 15:32:48 .
SO-50 20 Jan 15:27:47 15:32:14 38° 248° (WSW) 15:36:43 436.795
KKS-1 20 Jan 15:41:07 15:45:15 38° 102° (ESE) 15:49:25 437.445
CUBESAT XI-V 20 Jan 15:46:42 15:49:22 15° 282° (WNW) 15:52:01 437.345
LilacSat-2 20 Jan 15:55:16 15:57:39 16° 79° (E) 16:00:03 437.200
XW-2C 20 Jan 15:58:24 16:00:45 16° 79° (ENE) 16:03:06 145.795 - 145.815
STARS 20 Jan 15:59:53 16:03:09 20° 102° (ESE) 16:06:25 437.465
HO-68 20 Jan 16:11:10 16:11:14 10° 75° (ENE) 16:11:19 435.675
DOVE 4 20 Jan 16:15:11 16:18:44 21° 257° (WSW) 16:22:08 437.250
JUGNU 20 Jan 16:28:46 16:34:40 69° 21° (NNE) 16:40:37 437.505
KAITUO 1B 20 Jan 16:33:39 16:37:09 35° 79° (E) 16:40:37 145.475/437.950
XW-2F 20 Jan 16:33:58 16:37:44 53° 79° (ENE) 16:41:26 145.980 - 146.000
XW-2D 20 Jan 16:43:00 16:46:50 89° 251° (WSW) 16:50:40 145.860 - 145.880
NUDT-PHONESAT 20 Jan 16:45:38 16:49:18 51° 79° (ENE) 16:52:55 437.300
SRMSAT 20 Jan 16:48:13 16:52:13 18° 14° (NNE) 16:56:13 437.500
nSIGHT-1 20 Jan 16:56:33 16:59:43 78° 305° (NW) 17:02:51 .
XW-2B 20 Jan 17:00:41 17:04:24 47° 259° (W) 17:08:05 145.730 - 145.750
ISS 20 Jan 17:07:07 17:10:22 77° 125° (SE) 17:13:36 437.550
CUTE-I 20 Jan 17:22:06 17:27:15 50° 257° (WSW) 17:32:23 437.470
RS-15 20 Jan 17:26:14 17:37:08 61° 69° (ENE) 17:47:44 29.354- 29.394
LilacSat-2 20 Jan 17:29:15 17:31:38 16° 258° (WSW) 17:34:02 437.200
XW-2C 20 Jan 17:32:17 17:34:38 16° 259° (WSW) 17:36:59 145.795 - 145.815
STARS 20 Jan 17:36:17 17:39:12 17° 282° (WNW) 17:42:07 437.465
SEEDS 20 Jan 17:39:02 17:43:10 50° 78° (ENE) 17:47:15 437.485
CUTE 1.7 + AOD 2 20 Jan 17:50:20 17:54:31 53° 259° (WSW) 17:58:40 437.475
HO-68 20 Jan 17:51:23 17:58:34 75° 255° (WSW) 18:05:42 435.675
CUBEBUG 2 20 Jan 17:56:26 18:00:36 84° 256° (WSW) 18:04:53 437.445
UWE-3 20 Jan 18:02:59 18:07:07 53° 78° (ENE) 18:11:20 435.000/436.395/437.385
JUGNU 20 Jan 18:18:07 18:23:45 44° 200° (SSW) 18:29:26 437.505
STRAND 1 20 Jan 18:27:38 18:32:39 55° 282° (WNW) 18:37:41 437.568
ZACube-1 20 Jan 18:27:52 18:32:02 51° 78° (ENE) 18:36:16 437.345
AO-73 20 Jan 18:34:56 18:39:07 54° 79° (ENE) 18:43:23 145.935
BEESAT 3 20 Jan 18:35:37 18:38:46 25° 68° (ENE) 18:41:55 437.485
FO-29 20 Jan 18:36:07 18:41:22 58° 103° (ESE) 18:47:10 435.910
SRMSAT 20 Jan 18:36:10 18:41:48 42° 20° (NNE) 18:47:26 437.500
XW-2A 20 Jan 18:48:20 18:51:37 44° 259° (W) 18:54:52 145.665 - 145.685
AAUSAT CUBESAT 2 20 Jan 18:58:08 19:01:52 32° 259° (WSW) 19:05:34 437.432
Oscar 11 20 Jan 19:08:43 19:13:04 87° 253° (WSW) 19:17:26 .
BEESAT 2 20 Jan 19:22:36 19:25:29 20° 68° (ENE) 19:28:20 435.950
UNISAT 6 20 Jan 19:24:41 19:26:43 13° 102° (ESE) 19:28:45 437.425
DELFI C3 20 Jan 19:39:53 19:43:11 26° 79° (E) 19:46:28 145.870
RS-15 20 Jan 19:41:30 19:49:03 21° 248° (WSW) 19:56:35 29.354- 29.394
PCSat 20 Jan 19:41:58 19:47:19 70° 251° (WSW) 19:52:42 145.827
JUGNU 20 Jan 20:09:04 20:13:10 19° 195° (SSW) 20:17:18 437.505
Max Valier Satellite 20 Jan 20:24:22 20:28:06 81° 77° (ENE) 20:31:48 145.860
SRMSAT 20 Jan 20:25:04 20:31:03 72° 201° (SSW) 20:37:02 437.500
AO-85 20 Jan 20:33:55 20:37:57 22° 68° (ENE) 20:42:01 145.980
TIGRISAT 20 Jan 20:43:27 20:48:00 55° 282° (WNW) 20:52:29 435.000
EO-88 20 Jan 20:44:16 20:47:57 84° 260° (W) 20:51:35 145.990 - 145.960
YUBILEINY 20 Jan 20:48:04 20:55:34 31° 93° (E) 21:03:00 435.215
UNISAT 6 20 Jan 20:59:04 21:03:08 30° 282° (WNW) 21:07:09 437.425
BEESAT 2 20 Jan 21:01:05 21:02:54 13° 248° (WSW) 21:04:44 435.950
PRISM 20 Jan 21:18:11 21:22:16 73° 102° (ESE) 21:26:23 437.425
ESTCUBE 1 20 Jan 21:20:02 21:23:00 17° 78° (ENE) 21:25:56 437.505/2401.250
O/OREOS (USA 219) 20 Jan 21:38:37 21:41:54 19° 105° (ESE) 21:45:10 437.305
QB50P2 20 Jan 21:56:21 21:59:40 22° 102° (ESE) 22:02:56 145.880/145.840
JUGNU 20 Jan 22:01:44 22:03:08 11° 185° (S) 22:04:31 437.505
AIST 2D 20 Jan 22:03:24 22:06:45 52° 281° (WNW) 22:10:08 435.315
LO-87 20 Jan 22:04:57 22:08:26 64° 258° (WSW) 22:11:56 145.935 - 145.965
AO-85 20 Jan 22:13:44 22:18:11 27° 248° (WSW) 22:22:37 145.980
SRMSAT 20 Jan 22:15:23 22:20:24 27° 198° (SSW) 22:25:25 437.500
DUCHIFAT 1 20 Jan 22:26:03 22:29:55 35° 102° (ESE) 22:33:46 145.980
EO-79 20 Jan 22:26:31 22:30:41 53° 102° (ESE) 22:34:49 145.935-145.965
YUBILEINY 20 Jan 22:44:16 22:51:57 34° 273° (W) 22:59:39 435.215
SPROUT 20 Jan 22:55:54 23:00:03 58° 79° (ENE) 23:04:12 437.525
ESTCUBE 1 20 Jan 22:56:03 22:59:31 22° 258° (WSW) 23:02:58 437.505/2401.250
VELOX 1 20 Jan 22:56:48 23:00:30 26° 78° (ENE) 23:04:10 145.980
POLYITAN 1 20 Jan 23:01:29 23:05:32 44° 282° (WNW) 23:09:36 437.675
FALCONSAT 3 20 Jan 23:05:03 23:08:44 84° 141° (SE) 23:12:24 435.103
NANOSAT C BR1 20 Jan 23:17:44 23:21:27 30° 282° (WNW) 23:25:12 145.865
O/OREOS (USA 219) 20 Jan 23:17:57 23:21:01 18° 284° (WNW) 23:24:06 437.305
BUGSAT 1 20 Jan 23:28:37 23:32:36 41° 102° (ESE) 23:36:33 437.445
QB50P2 20 Jan 23:32:49 23:35:09 14° 282° (WNW) 23:37:29 145.880/145.840
Gurwin Techsat 1B 20 Jan 23:48:29 23:52:59 28° 103° (ESE) 23:57:30 435.225
JUGNU 20 Jan 23:52:01 23:53:23 11° 175° (S) 23:54:44 437.505
Oscar 19 21 Jan 00:04:19 00:09:23 65° 102° (ESE) 00:14:29 437.125/150
SRMSAT 21 Jan 00:07:28 00:10:13 13° 190° (S) 00:13:00 437.500
AO-91 21 Jan 00:25:35 00:30:31 54° 281° (W) 00:35:46 145.960
VELOX 1 21 Jan 00:34:39 00:36:39 13° 257° (WSW) 00:38:39 145.980
UKube-1 21 Jan 00:38:11 00:42:17 44° 78° (ENE) 00:46:21 .
DX 1 21 Jan 00:49:17 00:53:35 62° 258° (WSW) 00:57:51 434.975-435.025
MOZHAYETS 4 21 Jan 00:49:21 00:51:01 12° 78° (ENE) 00:52:41
50 SAT 21 Jan 01:17:26 01:19:14 15° 258° (WSW) 01:21:03 437.505
Gurwin Techsat 1B 21 Jan 01:29:05 01:32:39 18° 283° (WNW) 01:36:13 435.225
JUGNU 21 Jan 01:39:14 01:43:20 19° 165° (SSE) 01:47:24 437.505
ITUPSAT 1 21 Jan 01:50:48 01:55:15 40° 78° (ENE) 01:59:42 437.325
AO-7 21 Jan 01:51:47 01:59:59 63° 106° (ESE) 02:08:10 .
SO-50 21 Jan 02:01:36 02:04:42 18° 112° (ESE) 02:07:45 436.795
NO-84 21 Jan 02:06:28 02:09:22 26° 236° (SW) 02:12:28 435.350 FM
MOZHAYETS 4 21 Jan 02:23:48 02:27:53 31° 258° (WSW) 02:31:57
CUBESAT XI-V 21 Jan 02:26:00 02:30:30 44° 78° (ENE) 02:34:57 437.345
BEESAT 21 Jan 02:30:23 02:35:01 56° 258° (WSW) 02:39:40 436.000
ITAMSAT 1 21 Jan 02:49:08 02:54:14 56° 283° (WNW) 02:59:21 435.822/435.867
DOVE 4 21 Jan 02:56:35 03:00:51 34° 103° (ESE) 03:05:22 437.250
M-CUBED/EXP-1 PRIME 21 Jan 03:07:08 03:10:07 33° 106° (ESE) 03:13:11 437.505
JUGNU 21 Jan 03:27:05 03:32:44 44° 160° (SSE) 03:38:18 437.505
SO-50 21 Jan 03:41:41 03:44:53 19° 292° (WNW) 03:48:03 436.795
